Location: Unspecified
(0.0000°N, 0.0000°E)
Time: 19:17:04
(UTC+00:00)

Transit 2A - Visible Passes

Search period start: 19 January 2017 00:00
Search period end: 29 January 2017 00:00
Orbit: 600 x 960 km, 66.7° (Epoch: 18 January)

Date Brightness Start Highest point End Pass type
(mag) Time Alt. Az. Time Alt. Az. Time Alt. Az.
19 Jan 7.8 18:52:32 10° SSE 18:56:45 19° ESE 18:59:32 14° E visible
19 Jan 7.4 20:34:04 10° SW 20:39:50 39° WNW 20:40:06 38° WNW visible
20 Jan 6.7 19:59:42 10° SSW 20:05:55 62° WNW 20:07:57 40° N visible
21 Jan 6.3 19:25:39 10° SSW 19:31:58 84° ESE 19:35:52 23° NNE visible
22 Jan 6.6 18:51:53 10° S 18:57:59 53° ESE 19:03:43 10° NE visible
22 Jan 8.9 20:38:16 10° W 20:40:52 13° WNW 20:43:24 10° NW visible
23 Jan 8.5 20:02:23 10° WSW 20:06:57 21° WNW 20:11:17 10° NNW visible
24 Jan 7.9 19:27:28 10° SW 19:33:01 34° WNW 19:38:14 10° N visible
25 Jan 7.1 18:53:01 10° SSW 18:59:05 55° WNW 19:04:47 10° N visible
26 Jan 8.0 05:45:59 10° NNE 05:49:37 25° ENE 05:53:26 10° SE visible
27 Jan 8.4 05:13:24 10° NE 05:15:42 14° ENE 05:18:05 10° ESE visible
27 Jan 9.2 19:32:32 10° W 19:34:02 11° WNW 19:35:31 10° WNW visible
28 Jan 8.8 18:55:59 10° WSW 19:00:07 19° WNW 19:04:04 10° NNW visible
